Regional Weather Roundup
Issued by NWS Jackson, KY

Home | Current Version | Previous Version | Text Only | Print | Product List | Glossary Off
Versions: 1 2 3 4 5 6 7 8 9 10 11 12 13 14 15 16 17 18 19 20 21 22 23 24 25 26 27 28 29 30 31 32 33 34 35 36 37 38 39 40 41 42 43 44 45 46 47 48 49 50

000
ASUS43 KJKL 300919
RWRJKL

EAST KENTUCKY HOURLY WEATHER ROUNDUP
NATIONAL WEATHER SERVICE JACKSON KY
400 AM EST FRI JAN 30 2015

NOTE: "FAIR" INDICATES FEW OR NO CLOUDS BELOW 12,000 FEET WITH
NO SIGNIFICANT WEATHER AND/OR OBSTRUCTIONS TO VISIBILITY.

* THESE REPORTS ARE NOT UNDER NWS QUALITY CONTROL AND MAY NOT
  REPORT WEATHER SUCH AS PRECIPITATION AND FOG.

KYZ079-080-083-085-087-088-110-112-115-119-120-301000
...EASTERN KENTUCKY...

CITY           SKY/WX    TMP DP  RH WIND       PRES   REMARKS
JACKSON        CLOUDY    32  24  72 W8G17     30.21R WCI  25
LONDON         CLOUDY    34  24  67 NW12      30.25R WCI  25
SOMERSET*      CLOUDY    32  28  86 NW9       30.30R WCI  24
MONTICELLO*    CLOUDY    35  28  76 NW7       30.32R WCI  29
MIDDLESBORO*   CLOUDY    35  27  74 N9        30.24S WCI  27
HARLAN APT*    CLOUDY    32  28  86 W8G20     30.21R WCI  25
BLACK MTN*       N/A     21  21 100 N5          N/A  WCI  15
PIKEVILLE APT* CLOUDY    30  28  93 W8        30.18R WCI  23
BIG SANDY*     CLOUDY    32  29  88 W6        30.19R WCI  27
MOREHEAD APT*  CLOUDY    32  28  86 W7        30.24R WCI  26
ASHLAND*       CLOUDY    34  30  86 W9        30.18R WCI  26
$$

KYZ035-036-041-042-044-050-067-078-099-301000
...CENTRAL KENTUCKY...

CITY           SKY/WX    TMP DP  RH WIND       PRES   REMARKS
MT STERLING*   CLOUDY    32  30  93 NW7       30.25R WCI  26
FLEMING/MASON* CLOUDY    32  27  80 NW9       30.23R WCI  24
DANVILLE*      CLOUDY    32  30  93 NW8       30.29R WCI  25
RICHMOND*      CLOUDY    34  27  75 NW9       30.26R WCI  26
LEXINGTON      CLOUDY    32  28  85 W10       30.26R WCI  24
FRANKFORT      CLOUDY    34  26  72 VRB6      30.26S WCI  29
$$

KYZ091>093-OHZ055-061-077-WVZ005-015-034-035-042-301000
...SOUTHERN OHIO/WEST VIRGINIA...

CITY           SKY/WX    TMP DP  RH WIND       PRES   REMARKS
COVINGTON      CLOUDY    33  26  75 NW13      30.23S WCI  24
COLUMBUS       FLURRIES  30  27  86 W12       30.13R WCI  21
DAYTON         CLOUDY    30  26  85 NW16      30.21R WCI  19
WILMINGTON     FLURRIES  31  26  82 W13       30.18R WCI  21
HUNTINGTON     FLURRIES  33  28  81 W6        30.18R WCI  28
CHARLESTON     FLURRIES  33  28  81 NW7       30.14R WCI  27
PINEVILLE*     MIX PCPN  33  32  96 MISG      30.15R
BECKLEY        LGT SNOW  28  24  85 NW15      30.04R FOG     WCI  16
BLUEFIELD      LGT SNOW  30  25  81 NW15G26   30.03R WCI  19
$$

VAZ002-007-008-TNZ017-027-036-066-071-301000
...SOUTHWEST VIRGINIA/EAST TENNESSEE...

CITY           SKY/WX    TMP DP  RH WIND       PRES   REMARKS
WISE*          CLOUDY    30  28  93 NW10G17   30.12S WCI  21
JONESVILLE*    CLOUDY    34  27  75 NW6       30.22S WCI  29
ABINGDON*      CLOUDY    35  28  78 N9        30.11R WCI  27
BRISTOL        CLOUDY    36  27  69 NW16G22   30.16R WCI  26
KNOXVILLE      CLOUDY    38  26  62 NW7       30.25R WCI  33
OAK RIDGE      CLOUDY    38  26  62 VRB7      30.27S WCI  33
CROSSVILLE     CLOUDY    34  26  72 N14       30.25R WCI  25
NASHVILLE      CLOUDY    38  29  70 NW12      30.37R WCI  30
$$

...KEY TO REMARKS...
VSB - VISIBILITY IN MILES
WCI - WIND CHILL INDEX
HX  - HEAT INDEX

$$


USA.gov is the U.S. government's official web portal to all federal, state and local government web resources and services.